Baku, Azerbaijan

7:01 AM +04 on May 23, 2018 (GMT +0400)
Bina

Weather History for UBBB - February, 2018

Change the Weather History Date:

Friday, February 16, 2018

  Actual Average Record
Temperature  
Mean Temperature 44 °F -  
Max Temperature 48 °F - - ()
Min Temperature 41 °F - - ()
Degree Days  
Heating Degree Days 20    
Moisture  
Dew Point 42 °F    
Average Humidity 89    
Maximum Humidity 100    
Minimum Humidity 75    
Precipitation  
Precipitation 0.00 in - - ()
Sea Level Pressure  
Sea Level Pressure 30.46 in    
Wind  
Wind Speed 5 mph ()    
Max Wind Speed 13 mph    
Max Gust Speed -    
Visibility 6.0 miles    
Events      
T = Trace of Precipitation, MM = Missing Value Source: Averaged Metar Reports

Daily Weather History Graph

Daily Weather History Graph

Search for Another Location

Airport or City:

Astronomy

Feb. 16, 2018 Rise Set
Actual Time 7:32 AM +04 6:15 PM +04
Civil Twilight 7:04 AM +04 6:43 PM +04
Nautical Twilight 6:32 AM +04 7:15 PM +04
Astronomical Twilight 6:01 AM +04 7:47 PM +04
Moon 7:52 AM +04 (2/16) 6:49 PM +04 (2/16)
Length of Visible Light 11h 39m
Length of Day
10h 43m
New Moon, 0% of the Moon is Illuminated
Feb 16
New Moon
Feb 23
First Quarter
Mar 2
Full
Mar 9
Last Quarter
Mar 17
New

Hourly Weather History & Observations

Time (+04) Temp. Windchill Dew Point Humidity Pressure Visibility Wind Dir Wind Speed Gust Speed Precip Events Conditions
12:00 AM 42.8 °F 39.3 °F 41.0 °F 93% 30.48 in 6.2 mi NNW 5.8 mph - N/A   Overcast
12:30 AM 42.8 °F 41.1 °F 41.0 °F 93% 30.48 in 6.2 mi North 3.5 mph - N/A   Overcast
1:00 AM 43 °F - 39 °F 80% 30.48 in 6 mi Calm Calm - -   Overcast
1:00 AM 42.8 °F - 41.0 °F 93% 30.48 in 6.2 mi Calm Calm - N/A   Overcast
1:30 AM 42.8 °F - 41.0 °F 93% 30.48 in 6.2 mi NW 1.2 mph - N/A   Overcast
2:00 AM 42.8 °F - 39.2 °F 87% 30.48 in 6.2 mi North 2.3 mph - N/A   Overcast
2:30 AM 42.8 °F 41.1 °F 39.2 °F 87% 30.48 in 6.2 mi North 3.5 mph - N/A   Overcast
3:00 AM 42.8 °F 41.1 °F 39.2 °F 87% 30.45 in 6.2 mi North 3.5 mph - N/A   Overcast
3:30 AM 42.8 °F 41.1 °F 39.2 °F 87% 30.48 in 6.2 mi NNW 3.5 mph - N/A   Overcast
4:00 AM 42 °F - 38 °F 80% 30.47 in 6 mi Calm Calm - -   Overcast
4:00 AM 42.8 °F - 39.2 °F 87% 30.48 in 6.2 mi NW 2.3 mph - N/A   Overcast
4:30 AM 42.8 °F - 39.2 °F 87% 30.48 in 6.2 mi North 2.3 mph - N/A   Overcast
5:00 AM 42.8 °F - 39.2 °F 87% 30.48 in 6.2 mi NW 2.3 mph - N/A   Overcast
5:30 AM 42.8 °F - 39.2 °F 87% 30.48 in 6.2 mi NNE 2.3 mph - N/A   Overcast
6:00 AM 42.8 °F - 39.2 °F 87% 30.48 in 6.2 mi East 2.3 mph - N/A   Overcast
6:30 AM 42.8 °F - 39.2 °F 87% 30.48 in 6.2 mi South 2.3 mph - N/A   Overcast
7:00 AM 43 °F - 40 °F 85% 30.48 in 6 mi Calm Calm - -   Overcast
7:00 AM 42.8 °F - 39.2 °F 87% 30.48 in 6.2 mi Calm Calm - N/A   Overcast
8:00 AM 42.8 °F 41.1 °F 41.0 °F 93% 30.48 in 5.0 mi East 3.5 mph - N/A   Overcast
8:30 AM 44.6 °F 42.2 °F 41.0 °F 87% 30.48 in 5.0 mi ESE 4.6 mph - N/A   Overcast
9:00 AM 44.6 °F 42.2 °F 42.8 °F 93% 30.48 in 5.0 mi ESE 4.6 mph - N/A   Overcast
9:30 AM 46.4 °F 42.4 °F 42.8 °F 87% 30.48 in 6.2 mi SE 8.1 mph - N/A   Overcast
10:00 AM 46 °F - 43 °F 85% 30.50 in 6 mi ESE 4.5 mph - -   Overcast
10:00 AM 46.4 °F 41.5 °F 44.6 °F 93% 30.51 in 6.2 mi SE 10.4 mph - N/A   Overcast
10:30 AM 46.4 °F 40.7 °F 44.6 °F 93% 30.51 in 6.2 mi SSE 12.7 mph - N/A   Overcast
11:00 AM 48.2 °F - 44.6 °F 87% 30.48 in 6.2 mi SSE 11.5 mph - N/A   Overcast
11:30 AM 48.2 °F - 44.6 °F 87% 30.48 in 6.2 mi SSE 11.5 mph - N/A   Overcast
12:00 PM 48.2 °F - 42.8 °F 82% 30.48 in 6.2 mi SE 12.7 mph - N/A   Overcast
12:30 PM 48.2 °F - 42.8 °F 82% 30.48 in 6.2 mi SE 12.7 mph - N/A   Overcast
1:00 PM 48 °F - 43 °F 75% 30.47 in 6 mi ENE 6.7 mph - -   Overcast
1:00 PM 48.2 °F - 44.6 °F 87% 30.48 in 6.2 mi SSE 12.7 mph - N/A   Overcast
1:30 PM 48.2 °F - 44.6 °F 87% 30.45 in 6.2 mi East 11.5 mph - N/A   Overcast
2:00 PM 48.2 °F - 44.6 °F 87% 30.45 in 6.2 mi ESE 12.7 mph - N/A   Overcast
2:30 PM 48.2 °F - 42.8 °F 82% 30.45 in 6.2 mi East 11.5 mph - N/A   Overcast
3:00 PM 48.2 °F - 44.6 °F 87% 30.42 in 6.2 mi ESE 12.7 mph - N/A   Overcast
3:30 PM 48.2 °F - 44.6 °F 87% 30.42 in 6.2 mi ESE 11.5 mph - N/A   Overcast
4:00 PM 47 °F - 43 °F 81% 30.43 in 6 mi ENE 6.7 mph - -   Overcast
4:00 PM 48.2 °F - 44.6 °F 87% 30.42 in 6.2 mi East 10.4 mph - N/A   Overcast
4:30 PM 48.2 °F - 44.6 °F 87% 30.42 in 6.2 mi ESE 11.5 mph - N/A   Overcast
5:00 PM 48.2 °F - 44.6 °F 87% 30.42 in 6.2 mi ESE 10.4 mph - N/A   Overcast
5:30 PM 48.2 °F - 44.6 °F 87% 30.42 in 6.2 mi ESE 9.2 mph - N/A   Overcast
6:00 PM 46.4 °F 41.1 °F 44.6 °F 93% 30.42 in 6.2 mi ESE 11.5 mph - N/A   Overcast
6:30 PM 46.4 °F 41.5 °F 44.6 °F 93% 30.42 in 6.2 mi ESE 10.4 mph - N/A   Overcast
7:00 PM 45 °F - 42 °F 87% 30.43 in 6 mi East 4.5 mph - -   Overcast
7:00 PM 46.4 °F 42.4 °F 44.6 °F 93% 30.42 in 6.2 mi SE 8.1 mph - N/A   Overcast
7:30 PM 46.4 °F 44.3 °F 44.6 °F 93% 30.42 in 6.2 mi SE 4.6 mph - N/A   Overcast
8:00 PM 46.4 °F - 44.6 °F 93% 30.42 in 6.2 mi Calm Calm - N/A   Overcast
8:30 PM 46.4 °F 45.2 °F 44.6 °F 93% 30.42 in 6.2 mi SSE 3.5 mph - N/A   Overcast
9:00 PM 46.4 °F 44.3 °F 44.6 °F 93% 30.42 in 6.2 mi SE 4.6 mph - N/A   Overcast
9:30 PM 46.4 °F 44.3 °F 44.6 °F 93% 30.42 in 6.2 mi SSE 4.6 mph - N/A   Overcast
10:00 PM 46 °F - 43 °F 86% 30.43 in 6 mi ESE 4.5 mph - -   Overcast
10:00 PM 44.6 °F 40.7 °F 44.6 °F 100% 30.42 in 6.2 mi SSE 6.9 mph - N/A   Overcast
10:30 PM 44.6 °F 40.7 °F 44.6 °F 100% 30.42 in 6.2 mi SSE 6.9 mph - N/A   Overcast
11:00 PM 44.6 °F 41.4 °F 44.6 °F 100% 30.39 in 4.3 mi SSE 5.8 mph - N/A   Overcast
11:30 PM 44.6 °F 40.7 °F 44.6 °F 100% 30.39 in 3.7 mi South 6.9 mph - N/A   Overcast